Location: Fort Worth, Tx
(32.7431°N, 97.3695°W)
Time: 11:36:36
(UTC-05:00)

Transit 2A - Visible Passes

Search period start: 29 January 2023 00:00
Search period end: 08 February 2023 00:00
Orbit: 594 x 962 km, 66.7° (Epoch: 29 January)

Date Brightness Start Highest point End Pass type
(mag) Time Alt. Az. Time Alt. Az. Time Alt. Az.
29 Jan 8.5 06:28:26 12° SSW 06:28:26 12° SSW 06:29:01 10° SSW visible
29 Jan 8.8 20:58:56 10° NW 20:59:21 10° NW 20:59:48 10° NW visible
30 Jan 8.5 20:21:41 10° W 20:24:30 15° NW 20:27:30 10° NNW visible
31 Jan 8.0 19:46:01 10° WSW 19:49:44 23° NW 19:53:47 10° N visible
